Wind_Speed
35 35 30 28 29 25 25 23 20 19 13 11 12 20 24 26 28 30 30 32 30 24 26 33 36 38 36 37 40 40 38 38 37 37 35 33 35 36 37 37 37 37 39 41
37 34 28 32 30 28 27 26 23 17 12 11 12 17 23 27 30 31 32 29 19 16 22 28 32 36 36 38 40 37 36 35 36 37 37 37 37 37 38 37 38 40 43 44
36 28 31 32 31 30 29 27 24 21 18 17 16 22 25 28 32 34 32 23 20 20 24 30 34 33 35 38 36 34 34 35 37 38 39 40 40 41 42 43 44 45 46 48
32 28 31 32 33 33 35 26 22 26 30 25 22 25 29 31 33 34 30 22 24 25 27 31 30 27 33 33 33 35 37 38 39 40 41 43 44 45 47 48 49 51 53 55
24 25 29 32 29 29 31 22 20 25 32 35 30 31 35 38 36 35 30 26 27 28 31 33 29 31 34 34 36 40 41 42 42 43 45 46 47 49 51 53 55 56 58 59
24 25 28 30 29 28 26 23 23 28 31 36 37 38 43 44 39 37 35 32 34 34 36 37 36 35 36 37 39 42 45 45 45 45 47 49 50 52 55 57 57 59 60 63
25 27 28 29 30 29 30 31 33 35 35 35 32 37 41 43 42 40 38 38 39 38 37 38 37 36 38 39 42 47 48 47 46 47 50 51 53 55 58 59 60 61 62 63
25 27 27 27 28 28 30 32 32 35 33 30 33 37 35 39 38 37 36 38 40 40 40 42 40 38 39 42 45 48 48 47 48 51 53 53 55 57 58 59 61 62 62 60
24 27 24 30 31 32 30 28 26 32 35 32 32 32 31 32 33 36 40 41 39 41 42 43 40 39 42 45 47 49 49 49 51 54 55 55 57 58 59 61 63 64 61 52
23 25 26 28 34 34 37 34 32 33 36 34 32 34 36 35 33 34 34 35 36 37 38 40 40 41 45 49 52 51 49 50 54 55 55 56 58 59 60 61 60 55 45 36
33 29 23 29 35 33 28 30 34 35 35 34 31 29 29 35 38 40 41 43 44 38 37 38 39 42 47 53 52 51 48 51 55 56 58 59 60 60 59 57 49 40 34 37
36 36 29 29 31 29 27 25 29 35 33 34 35 33 29 32 37 40 44 45 43 39 38 38 38 42 48 48 44 46 49 53 55 59 61 59 60 60 59 54 42 37 38 38
36 39 38 32 30 31 30 30 25 29 32 35 42 42 39 39 41 43 44 42 41 42 43 42 38 37 42 39 42 47 51 53 60 65 61 59 59 59 56 46 40 38 38 38
41 40 39 38 35 35 36 39 35 34 41 42 43 44 39 38 41 45 47 47 47 46 43 42 27 22 30 37 43 49 51 59 64 60 57 57 57 56 47 39 38 38 39 39
49 46 46 44 43 45 43 43 44 41 40 43 42 41 40 40 38 39 40 40 43 45 40 42 35 25 30 37 44 52 59 60 56 54 55 55 55 47 39 37 37 38 40 42
57 56 56 54 52 49 48 46 47 48 44 42 43 44 43 45 42 43 43 43 45 47 38 30 28 28 37 43 51 57 55 52 52 53 54 53 45 38 36 36 38 41 43 45
52 58 61 62 61 60 56 51 51 53 52 50 49 50 46 43 43 42 45 49 49 52 30 27 35 39 43 48 54 51 48 51 53 53 52 45 37 36 36 38 41 43 46 48
48 52 57 60 63 65 64 63 60 59 58 58 56 56 57 54 53 52 53 55 53 56 39 35 35 36 41 47 47 48 50 51 50 49 43 36 35 36 38 41 43 46 49 51
47 49 51 55 61 65 65 65 64 62 61 61 59 59 62 65 66 66 60 54 55 60 54 43 38 40 44 46 47 48 48 46 47 42 35 34 36 37 40 43 45 48 50 50
44 45 46 48 54 59 57 54 56 55 54 56 56 55 56 58 60 58 51 47 48 50 47 42 43 42 41 43 45 45 43 43 40 35 33 35 37 40 42 44 46 48 49 51
32 36 38 40 44 47 47 44 44 46 47 44 40 39 44 42 39 40 37 36 39 41 38 37 36 36 38 40 41 41 41 38 33 32 34 35 38 41 42 44 46 47 50 52
27 30 32 35 37 40 39 40 41 42 43 39 37 38 32 25 25 30 35 37 38 36 32 32 33 34 35 37 38 37 35 31 30 32 34 36 39 40 42 43 45 48 50 49
26 29 31 35 35 35 38 40 39 43 44 39 40 41 31 20 18 18 21 22 25 27 28 30 32 33 34 34 33 31 29 28 30 32 34 37 38 40 42 43 45 47 47 44
27 28 27 28 29 29 30 33 32 30 37 41 39 27 25 19 17 18 20 24 26 27 28 30 32 31 30 30 27 24 24 27 29 32 35 37 38 40 42 43 44 45 43 41
23 24 24 22 21 23 23 25 23 19 13 20 24 17 13 13 15 21 25 25 25 27 28 27 26 27 26 23 19 20 23 26 29 33 35 37 39 42 43 42 43 43 40 37
21 21 20 14 14 12 11 15 9 8 9 13 8 9 15 18 22 23 24 23 23 23 22 22 23 23 20 15 16 20 23 26 30 33 35 36 40 42 42 41 42 41 37 34
Wind_Direction
243 243 243 244 245 241 242 244 238 237 233 262 267 250 255 272 281 289 296 301 299 299 304 302 304 310 320 322 323 324 326 324 322 318 317 314 315 312 311 311 309 307 307 305
242 244 241 241 241 240 242 244 241 227 206 255 260 256 258 269 276 282 290 293 291 300 302 298 301 310 318 320 323 324 323 320 317 317 316 316 315 312 311 311 310 308 307 305
244 239 237 238 238 240 242 248 244 218 204 223 248 254 260 265 273 279 284 292 293 301 302 300 304 315 320 322 323 321 318 317 318 318 317 317 314 312 312 312 310 308 307 304
241 235 238 240 241 243 243 239 233 219 207 217 238 251 257 263 270 275 282 290 288 295 297 296 303 314 318 321 324 322 320 320 319 318 318 316 314 312 310 308 307 308 307 306
237 236 239 238 241 246 245 235 231 223 218 218 227 244 254 258 263 270 278 287 285 285 287 290 294 304 309 313 317 319 319 319 318 317 317 315 313 311 309 308 308 308 307 306
231 232 235 238 235 228 226 226 232 235 240 237 227 236 247 256 262 269 276 282 280 280 287 290 290 294 303 307 310 314 317 317 317 316 315 314 312 310 309 309 309 308 307 307
237 233 238 241 237 226 219 226 232 241 249 251 242 240 248 258 262 265 267 267 271 279 284 287 285 290 301 305 306 311 315 316 318 317 315 312 310 310 310 310 308 307 306 305
239 236 236 238 239 229 223 232 246 253 260 263 249 247 249 253 263 265 263 264 269 275 279 283 283 286 295 300 304 308 312 314 318 317 315 312 310 309 308 306 305 304 302 301
243 240 231 230 221 219 224 237 249 255 261 263 248 247 243 240 250 260 265 268 270 275 276 277 282 288 291 294 299 305 311 315 315 314 313 310 309 308 307 306 306 304 301 299
248 249 223 221 218 215 230 234 239 245 253 253 254 250 245 249 260 266 273 272 273 272 270 274 282 290 290 290 297 306 310 311 311 311 311 311 310 309 308 309 309 309 306 299
238 243 216 213 221 229 242 247 241 245 248 252 256 258 259 257 261 267 274 277 280 278 274 272 279 282 285 290 297 305 309 310 311 312 313 312 311 311 310 309 307 312 308 303
240 241 229 211 212 227 236 241 241 245 246 248 255 263 269 267 264 265 267 270 273 272 270 268 270 278 284 289 300 309 312 313 312 312 313 312 311 311 311 307 299 300 301 302
238 240 240 232 218 222 229 235 238 240 247 247 249 254 257 260 261 264 267 269 271 273 277 267 255 264 283 300 309 314 316 315 312 310 311 311 311 311 310 303 295 298 301 302
242 243 245 238 226 230 231 233 233 231 241 252 252 248 255 263 263 264 264 268 272 276 283 274 256 281 299 304 310 315 313 312 310 309 311 312 311 310 308 302 299 301 302 305
244 247 247 247 245 245 241 237 238 240 246 253 258 261 266 269 266 266 266 271 276 271 275 280 279 298 305 309 313 313 312 310 309 311 313 313 311 309 306 304 303 304 305 307
240 245 247 249 251 248 244 244 244 245 247 252 255 257 259 266 269 270 269 274 279 276 276 275 291 309 310 311 313 313 312 310 312 313 313 313 310 308 307 308 307 307 309 312
243 246 247 248 250 252 251 248 252 255 257 259 261 263 264 263 266 270 277 281 285 288 287 302 311 319 315 314 313 313 312 313 314 313 313 311 307 308 310 310 310 312 314 315
241 243 246 247 247 249 251 251 251 255 258 260 260 263 266 269 271 275 280 284 285 287 296 318 322 317 313 312 312 312 311 314 314 313 311 308 308 311 313 313 314 317 318 318
249 247 248 249 250 250 249 250 252 254 256 257 259 260 262 264 267 269 275 279 279 282 292 317 318 311 309 310 310 310 313 314 314 311 308 308 311 315 315 316 319 321 320 320
253 253 252 252 253 254 252 251 251 254 257 257 260 263 264 265 267 268 268 269 275 284 293 303 304 304 305 307 309 313 315 313 310 307 307 310 314 314 317 321 323 323 324 323
252 251 251 250 249 251 253 252 253 255 258 258 259 265 265 259 258 260 259 268 280 289 296 298 301 304 307 310 313 315 313 309 306 305 308 313 315 317 322 325 326 327 327 327
248 250 252 252 252 251 251 249 251 254 254 249 248 264 253 233 241 259 268 274 279 284 290 295 299 306 310 311 311 309 306 304 304 307 313 317 319 324 327 329 331 331 331 332
257 257 257 255 254 260 258 251 254 253 247 246 249 257 247 256 276 289 285 278 282 287 291 294 299 305 307 306 306 305 303 304 307 312 317 320 325 329 332 333 333 333 334 333
263 268 267 260 258 257 261 252 248 249 241 240 240 238 246 275 285 292 276 276 281 288 290 295 299 300 300 301 303 301 302 307 314 318 321 326 332 334 335 334 334 336 336 335
266 266 263 256 254 260 255 235 230 224 221 218 229 240 243 256 271 269 269 272 283 290 292 296 295 296 299 302 301 301 308 316 320 322 326 333 337 337 336 336 336 338 338 340
258 261 257 254 224 195 193 180 151 134 150 173 201 243 240 240 250 261 270 277 281 285 287 289 294 300 301 298 301 309 318 322 324 329 334 339 339 339 339 339 340 341 341 344
Height
5849 5852 5857 5859 5859 5862 5862 5863 5865 5867 5866 5864 5865 5865 5863 5863 5866 5867 5867 5867 5865 5862 5860 5857 5854 5850 5847 5842 5837 5831 5827 5824 5823 5822 5820 5816 5813 5811 5808 5804 5799 5794 5790 5787
5842 5846 5852 5850 5851 5853 5854 5856 5859 5862 5861 5860 5860 5859 5859 5860 5862 5863 5863 5861 5859 5858 5856 5853 5850 5847 5842 5837 5832 5827 5824 5822 5819 5817 5813 5809 5806 5803 5799 5794 5789 5785 5782 5777
5834 5842 5841 5841 5843 5845 5848 5851 5854 5856 5856 5854 5856 5855 5855 5855 5856 5858 5859 5857 5855 5853 5850 5847 5844 5840 5835 5831 5827 5824 5821 5818 5814 5810 5806 5802 5798 5794 5789 5784 5780 5776 5773 5769
5825 5832 5832 5834 5836 5839 5840 5844 5846 5849 5850 5850 5852 5851 5849 5849 5849 5852 5853 5853 5850 5847 5844 5841 5839 5836 5832 5827 5823 5820 5816 5812 5808 5804 5800 5795 5790 5786 5781 5776 5770 5766 5760 5755
5822 5824 5825 5826 5830 5833 5835 5839 5839 5840 5843 5844 5845 5846 5843 5841 5843 5845 5847 5847 5845 5842 5840 5837 5835 5832 5829 5824 5819 5813 5808 5803 5800 5796 5792 5787 5782 5777 5771 5765 5760 5754 5748 5742
5816 5817 5817 5819 5822 5825 5829 5831 5832 5833 5834 5834 5839 5840 5835 5834 5837 5838 5840 5840 5836 5834 5833 5831 5829 5826 5822 5817 5812 5806 5801 5797 5793 5789 5784 5779 5774 5768 5761 5755 5749 5742 5735 5728
5808 5809 5811 5814 5815 5818 5821 5824 5825 5825 5825 5826 5833 5832 5831 5829 5830 5831 5833 5831 5829 5828 5827 5824 5822 5819 5815 5810 5805 5799 5795 5790 5786 5782 5776 5771 5765 5759 5752 5745 5737 5730 5723 5715
5797 5801 5804 5807 5809 5812 5814 5817 5818 5818 5819 5821 5825 5822 5824 5823 5821 5822 5822 5822 5821 5821 5820 5818 5816 5813 5808 5803 5798 5793 5789 5784 5780 5774 5769 5763 5757 5750 5743 5735 5727 5719 5712 5703
5791 5792 5798 5799 5800 5804 5806 5808 5812 5812 5811 5812 5813 5814 5815 5816 5816 5816 5816 5815 5815 5814 5812 5809 5807 5805 5801 5795 5790 5786 5782 5778 5773 5767 5761 5755 5748 5741 5732 5723 5714 5706 5697 5690
5784 5785 5790 5794 5795 5796 5798 5802 5804 5803 5803 5803 5805 5806 5808 5810 5811 5810 5809 5808 5808 5807 5805 5803 5800 5798 5793 5788 5782 5779 5774 5770 5766 5760 5752 5745 5737 5729 5719 5711 5701 5690 5681 5677
5774 5778 5784 5786 5788 5791 5793 5794 5795 5796 5796 5798 5798 5800 5803 5804 5803 5801 5800 5800 5800 5798 5797 5795 5794 5789 5784 5779 5775 5771 5766 5760 5754 5747 5741 5733 5725 5716 5706 5698 5689 5680 5675 5671
5768 5772 5775 5778 5783 5784 5787 5788 5790 5789 5789 5791 5792 5796 5797 5797 5795 5794 5792 5791 5789 5788 5787 5787 5783 5778 5775 5770 5767 5762 5757 5751 5744 5737 5730 5722 5713 5704 5695 5686 5679 5672 5667 5662
5763 5765 5768 5774 5780 5779 5778 5779 5781 5784 5784 5783 5784 5788 5789 5787 5787 5786 5784 5781 5780 5778 5777 5774 5768 5766 5765 5762 5758 5753 5746 5740 5734 5727 5718 5710 5702 5693 5685 5677 5670 5664 5659 5653
5758 5760 5763 5768 5771 5771 5770 5771 5773 5775 5775 5775 5774 5776 5778 5777 5778 5777 5776 5775 5772 5770 5767 5762 5753 5752 5754 5752 5747 5743 5736 5731 5724 5716 5708 5699 5692 5683 5675 5668 5661 5656 5650 5644
5750 5752 5754 5758 5762 5763 5764 5766 5766 5766 5766 5767 5766 5767 5768 5768 5769 5768 5767 5766 5764 5760 5757 5755 5749 5746 5746 5742 5737 5732 5727 5720 5713 5705 5697 5688 5681 5673 5665 5659 5653 5647 5642 5635
5737 5739 5741 5747 5748 5752 5757 5759 5758 5756 5757 5758 5758 5761 5763 5764 5762 5760 5759 5759 5758 5753 5749 5744 5741 5739 5736 5732 5728 5722 5715 5709 5702 5694 5686 5678 5671 5664 5657 5651 5645 5639 5632 5624
5725 5726 5729 5733 5736 5738 5743 5750 5749 5748 5750 5751 5752 5755 5756 5754 5754 5752 5749 5749 5747 5744 5741 5732 5727 5726 5726 5721 5717 5710 5704 5698 5690 5683 5676 5669 5663 5657 5650 5643 5637 5630 5621 5613
5711 5712 5713 5718 5722 5723 5728 5733 5736 5735 5737 5740 5742 5744 5745 5744 5743 5742 5741 5739 5736 5733 5729 5723 5720 5718 5716 5712 5705 5701 5696 5687 5681 5675 5668 5662 5656 5650 5643 5635 5628 5619 5610 5601
5696 5700 5702 5705 5705 5706 5715 5718 5721 5722 5722 5727 5730 5731 5732 5732 5732 5731 5731 5730 5726 5722 5719 5715 5712 5710 5706 5702 5698 5693 5685 5679 5674 5668 5662 5656 5649 5643 5636 5627 5618 5609 5599 5589
5683 5686 5690 5692 5692 5693 5703 5706 5707 5709 5709 5715 5719 5720 5721 5720 5719 5719 5720 5718 5715 5713 5711 5710 5707 5702 5698 5695 5690 5683 5677 5672 5668 5663 5657 5650 5643 5636 5628 5619 5609 5600 5589 5579
5672 5674 5676 5677 5679 5683 5688 5692 5696 5700 5702 5706 5708 5707 5706 5707 5708 5707 5706 5705 5705 5706 5706 5703 5700 5696 5691 5686 5680 5675 5672 5668 5662 5657 5652 5644 5638 5630 5620 5611 5601 5591 5580 5569
5665 5665 5667 5667 5669 5674 5676 5681 5686 5689 5690 5694 5697 5696 5701 5699 5697 5699 5698 5698 5699 5699 5697 5695 5693 5688 5682 5679 5675 5672 5668 5663 5658 5653 5645 5639 5632 5622 5613 5603 5593 5583 5572 5560
5656 5657 5657 5658 5661 5663 5665 5670 5674 5677 5681 5686 5688 5688 5694 5694 5692 5692 5691 5691 5692 5691 5690 5688 5685 5681 5678 5674 5671 5667 5663 5658 5653 5647 5640 5633 5625 5615 5606 5597 5587 5577 5566 5555
5648 5647 5647 5648 5650 5651 5653 5658 5664 5666 5672 5676 5681 5681 5686 5687 5686 5686 5687 5688 5688 5686 5684 5681 5679 5675 5673 5670 5666 5663 5659 5654 5648 5642 5635 5627 5618 5609 5601 5592 5582 5572 5561 5551
5641 5640 5638 5639 5640 5641 5642 5648 5656 5663 5665 5669 5674 5676 5679 5681 5682 5684 5684 5683 5681 5679 5678 5676 5674 5672 5669 5665 5661 5659 5656 5650 5644 5637 5630 5621 5612 5604 5595 5586 5577 5567 5556 5547
5635 5634 5634 5635 5634 5636 5640 5648 5656 5659 5663 5665 5669 5672 5673 5676 5679 5679 5679 5677 5676 5675 5674 5672 5669 5666 5664 5661 5659 5657 5652 5647 5640 5632 5624 5617 5608 5599 5590 5581 5572 5561 5551 5542